Location: Bothwell
(42.3833°S, 147.0000°E)
Time: 21:20:49
(UTC+11:00)

BEESAT - Pass Details

Date: 30 September 2022
Orbit: 699 x 706 km, 98.5° (Epoch: 25 November)

Event Time Altitude Azimuth Distance (km) Brightness Sun altitude
Exits shadow 20:46:15 16° 327° (NNW) 1,804 ? -26.8°
Maximum altitude 20:49:13 29° 276° (W) 1,291 ? -27.2°
Drops below altitude 10° 20:53:27 10° 215° (SW) 2,209 ? -27.9°
Sets 20:56:00 0° 204° (SSW) 3,138 ? -28.3°
